[[{"header":{"parameterUnit":"m.s-1","parameterCategory":2,"la1":30.2992,"la2":30.254,"lo1":-89.0895,"lo2":-89.0443,"dy":0.0025,"dx":0.0025,"nx":19,"ny":19,"refTime":"2026-03-08T21:00:00:Z","depth":"0","parameterNumber":2,"parameterNumberName":"U-component_of_CURRENTS"},"data":[0,0,0,0.0457,0.0458,0.0507,0.0507,0.0574,0.0575,0,0,0,0,0,0,0,0,0,0,0,0.0441,0.0441,0.0457,0.0458,0.0507,0.0507,0.0574,0.0575,0,0,0,0,0,0,0,0,0,0,0,0.044,0.0441,0.0441,0.0458,0.0507,0.0507,0.0574,0.0535,0,0,0,0,0,0,0,0,0,0,0.0488,0.0474,0.0441,0.0441,0.0459,0.0506,0.0507,0.0534,0.0538,0.0554,0,0.0564,0,0.0572,0.0579,0.058,0,0,0,0.0457,0.0471,0.0482,0.0441,0.0459,0.0506,0.0484,0.0536,0.0541,0.0559,0.0565,0.0568,0.0573,0.058,0.058,0.0673,0.0674,0,0,0.0454,0.0451,0.0479,0.0485,0.0476,0.0483,0.0486,0.0539,0.0547,0.0565,0.0569,0.0574,0.058,0.0581,0.0673,0.0673,0,0,0,0.0447,0.0449,0.0459,0.0483,0.0492,0.0484,0.0488,0.0544,0.0548,0.057,0.0575,0.0581,0.0581,0.0672,0.0673,0.0713,0,0,0,0.0446,0.0445,0.0458,0.0457,0.0491,0.0519,0.0492,0.0544,0.055,0.0575,0.0581,0.0582,0.0672,0.0673,0.0711,0.0749,0,0,0,0.0438,0.0445,0.0451,0.0457,0.0478,0.0518,0.0524,0.0545,0.0553,0.058,0.0582,0.0671,0.0672,0.0709,0.0745,0.0872,0,0,0,0.0431,0.0458,0.0451,0.0484,0.0478,0.0524,0.0524,0.0558,0.0582,0.0581,0.0672,0.0673,0.0708,0.0743,0.0868,0.098,0.1008,0,0,0.0463,0.0462,0.0481,0.0476,0.0523,0.0517,0.0579,0.0603,0.0606,0.0653,0.0655,0.0711,0.0745,0.0871,0.1047,0.1073,0,0,0,0.049,0.0503,0.0517,0.0541,0.0565,0.0603,0.062,0.0639,0.0684,0.0626,0.0724,0.0745,0.0823,0.0882,0.0903,0.1013,0.0678,0.0678,0.0678,0.0528,0.0538,0.0571,0.059,0.0621,0.0666,0.0708,0.0738,0.0723,0.0751,0.0785,0.0921,0.098,0.0998,0.1109,0.0784,0.0784,0.0784,0.0784,0.0567,0.0577,0.0601,0.0631,0.0669,0.0716,0.0794,0.0805,0.0912,0.0845,0.092,0.0929,0.1024,0.1134,0.0787,0.0787,0.0786,0.0786,0.0786,0.0574,0.0578,0.0595,0.0632,0.0692,0.0746,0.0861,0.091,0.0968,0.1031,0.1155,0.1155,0.1252,0.1089,0.109,0.1091,0.1091,0.1092,0.1092,0.0559,0.0579,0.059,0.0636,0.0665,0.0756,0.091,0.1021,0.1198,0.124,0.1242,0.1327,0.1015,0.1003,0.1103,0.1101,0.11,0.1099,0.1098,0.0542,0.0547,0.0567,0.0588,0.0685,0.0803,0.0952,0.1251,0.1397,0.1519,0.1634,0.1373,0.1393,0.1376,0.1374,0.1565,0.1565,0.1565,0.1565,0.0516,0.0525,0.0547,0.0592,0.0692,0.0829,0.1085,0.1349,0.1691,0.1859,0.1887,0.1827,0.1803,0.1841,0.1814,0.1818,0.2117,0.2118,0.2119,0.0489,0.0505,0.0515,0.0579,0.0691,0.0878,0.1108,0.1389,0.1901,0.2147,0.2027,0.2003,0.191,0.1864,0.1909,0.1862,0.1861,0,0]},{"header":{"parameterUnit":"m.s-1","parameterCategory":2,"la1":30.2992,"la2":30.254,"lo1":-89.0895,"lo2":-89.0443,"dy":0.0025,"dx":0.0025,"nx":19,"ny":19,"refTime":"2026-03-08T21:00:00:Z","depth":"0","parameterNumber":3,"parameterNumberName":"V-component_of_CURRENTS"},"data":[0,0,0,-0.0155,-0.0156,-0.0199,-0.0199,-0.0262,-0.0263,0,0,0,0,0,0,0,0,0,0,0,-0.0139,-0.0139,-0.0155,-0.0156,-0.0199,-0.0199,-0.0262,-0.0263,0,0,0,0,0,0,0,0,0,0,0,-0.0139,-0.0139,-0.0139,-0.0156,-0.0199,-0.0199,-0.0262,-0.0229,0,0,0,0,0,0,0,0,0,0,-0.0187,-0.0167,-0.0139,-0.0139,-0.0156,-0.0199,-0.0199,-0.0228,-0.0231,-0.0243,0,-0.0243,0,-0.0252,-0.0266,-0.0267,0,0,0,-0.0164,-0.0164,-0.0176,-0.0139,-0.0157,-0.0199,-0.0182,-0.023,-0.0234,-0.0247,-0.0244,-0.0247,-0.0253,-0.0267,-0.0267,-0.0284,-0.0284,0,0,-0.0161,-0.0149,-0.0173,-0.0178,-0.016,-0.018,-0.0183,-0.0232,-0.0234,-0.0245,-0.0248,-0.0254,-0.0267,-0.0268,-0.0285,-0.0284,0,0,0,-0.0149,-0.0148,-0.0158,-0.0175,-0.0181,-0.0181,-0.0184,-0.0231,-0.0235,-0.0249,-0.0255,-0.0267,-0.0268,-0.0285,-0.0284,-0.0218,0,0,0,-0.0148,-0.014,-0.0157,-0.0151,-0.018,-0.0205,-0.0182,-0.0231,-0.0237,-0.0255,-0.0267,-0.0269,-0.0285,-0.0285,-0.022,-0.0134,0,0,0,-0.0138,-0.0139,-0.0142,-0.015,-0.0165,-0.0205,-0.0211,-0.0233,-0.0241,-0.0267,-0.0269,-0.0285,-0.0285,-0.0223,-0.014,-0.0011,0,0,0,-0.0129,-0.0115,-0.0141,-0.013,-0.0165,-0.0171,-0.0211,-0.0224,-0.0241,-0.0268,-0.0285,-0.0285,-0.0223,-0.0144,-0.0016,0.0121,0.0155,0,0,-0.0103,-0.0112,-0.0105,-0.0129,-0.0121,-0.0166,-0.0159,-0.0201,-0.0238,-0.0272,-0.0272,-0.022,-0.0141,-0.0013,0.0151,0.0185,0,0,0,-0.0091,-0.0086,-0.0088,-0.0093,-0.0109,-0.0111,-0.0162,-0.0179,-0.0205,-0.0246,-0.0227,-0.0178,-0.01,-0.0029,-0.0003,-0.0104,-0.0282,-0.0282,-0.0282,-0.0045,-0.0056,-0.004,-0.0054,-0.0056,-0.008,-0.0075,-0.0108,-0.017,-0.0169,-0.0133,0.0005,0.0076,0.0098,-0.0011,-0.0173,-0.0173,-0.0173,-0.0173,-0.0004,0.0007,-0.0002,0.0011,0.0007,0.0015,0.0007,-0.002,0.0024,-0.0074,-0.0002,0.0026,0.0132,0.0005,-0.0168,-0.0169,-0.017,-0.017,-0.017,0.0022,0.003,0.0033,0.0061,0.0107,0.0107,0.0233,0.019,0.0136,0.0184,0.0305,0.0304,0.0208,0.023,0.0231,0.0232,0.0233,0.0234,0.0234,0.0053,0.0057,0.0102,0.0134,0.0197,0.0305,0.039,0.0463,0.0506,0.0444,0.0445,0.0253,0.013,0.0132,0.0249,0.0246,0.0244,0.0243,0.0242,0.0105,0.0103,0.0188,0.0251,0.0423,0.0636,0.0686,0.0874,0.0905,0.0957,0.0614,0.0585,0.0605,0.0582,0.0596,0.0827,0.0827,0.0827,0.0827,0.015,0.0149,0.0303,0.0454,0.0645,0.0811,0.114,0.1228,0.1067,0.0935,0.0792,0.067,0.0651,0.0662,0.0638,0.0647,0.0886,0.0886,0.0885,0.0208,0.025,0.0396,0.0537,0.0769,0.1037,0.1365,0.1515,0.1181,0.0867,0.0626,0.0623,0.041,0.0389,0.0371,0.0345,0.0347,0,0]}],[{"header":{"parameterUnit":"m.s-1","parameterCategory":2,"la1":30.2992,"la2":30.254,"lo1":-89.0895,"lo2":-89.0443,"dy":0.0025,"dx":0.0025,"nx":19,"ny":19,"refTime":"2026-03-08T21:00:00:Z","depth":"2","parameterNumber":2,"parameterNumberName":"U-component_of_CURRENTS"},"data":[0,0,0,0.0594,0.0595,0.0646,0.0646,0.071,0.0711,0,0,0,0,0,0,0,0,0,0,0,0.0577,0.0577,0.0594,0.0595,0.0646,0.0646,0.071,0.0711,0,0,0,0,0,0,0,0,0,0,0,0.0577,0.0577,0.0578,0.0595,0.0646,0.0646,0.071,0.0672,0,0,0,0,0,0,0,0,0,0,0.0622,0.0608,0.0577,0.0578,0.0596,0.0646,0.0646,0.067,0.0674,0.0687,0,0.0698,0,0.0706,0.0715,0.0715,0,0,0,0.0594,0.0605,0.0618,0.0578,0.0596,0.0646,0.0623,0.0672,0.0677,0.0692,0.0699,0.0701,0.0708,0.0715,0.0716,0.0804,0.0804,0,0,0.0591,0.0587,0.0614,0.0621,0.0614,0.0621,0.0625,0.0675,0.0682,0.0699,0.0703,0.0709,0.0716,0.0716,0.0803,0.0804,0,0,0,0.0584,0.0585,0.0597,0.0618,0.0628,0.0623,0.0627,0.068,0.0684,0.0704,0.0709,0.0716,0.0717,0.0803,0.0804,0.0842,0,0,0,0.0582,0.0581,0.0596,0.0594,0.0627,0.0655,0.063,0.068,0.0686,0.0709,0.0716,0.0718,0.0802,0.0803,0.084,0.0867,0,0,0,0.0574,0.058,0.0587,0.0593,0.0616,0.0655,0.0662,0.0682,0.069,0.0715,0.0718,0.0802,0.0803,0.0838,0.0863,0.0965,0,0,0,0.0566,0.0594,0.0587,0.0621,0.0615,0.0663,0.0661,0.0695,0.0718,0.0717,0.0802,0.0803,0.0837,0.0861,0.0962,0.1001,0.102,0,0,0.0598,0.0598,0.0618,0.0614,0.066,0.0655,0.0714,0.0738,0.0741,0.0784,0.0786,0.0841,0.0863,0.0965,0.1066,0.1084,0,0,0,0.0627,0.064,0.0654,0.0678,0.0702,0.0737,0.0754,0.0772,0.0815,0.076,0.0853,0.0867,0.093,0.0946,0.096,0.0809,0.0809,0.0809,0.0809,0.0662,0.0672,0.0706,0.0725,0.0755,0.0796,0.0835,0.0864,0.0852,0.088,0.0907,0.1022,0.1037,0.1048,0.0911,0.0912,0.0912,0.0912,0.0912,0.07,0.0712,0.0733,0.0765,0.0798,0.0843,0.0913,0.0925,0.1017,0.0962,0.1022,0.0995,0.1066,0.0915,0.0915,0.0914,0.0914,0.0914,0.0913,0.0705,0.071,0.0727,0.0767,0.082,0.087,0.0973,0.1019,0.1063,0.1116,0.1178,0.1177,0.107,0.1163,0.1163,0.1164,0.1164,0.1165,0.1165,0.0692,0.0712,0.0728,0.0772,0.0801,0.0883,0.1015,0.1109,0.1229,0.1244,0.1245,0.1108,0.1099,0.1086,0.1174,0.1172,0.1171,0.117,0.117,0.0686,0.0692,0.0721,0.0745,0.083,0.0921,0.1053,0.1274,0.1382,0.146,0.1335,0.1328,0.1335,0.1323,0.1316,0.1459,0.1459,0.1459,0.1459,0.0674,0.0681,0.0722,0.0769,0.0851,0.0945,0.1119,0.1258,0.1395,0.141,0.1411,0.1326,0.1316,0.1316,0.1303,0.1293,0.143,0.143,0.1429,0.0666,0.0684,0.0715,0.0771,0.0861,0.0979,0.1097,0.1162,0.1299,0.142,0.1325,0.1472,0.1347,0.1333,0.1327,0.1309,0.1291,0,0]},{"header":{"parameterUnit":"m.s-1","parameterCategory":2,"la1":30.2992,"la2":30.254,"lo1":-89.0895,"lo2":-89.0443,"dy":0.0025,"dx":0.0025,"nx":19,"ny":19,"refTime":"2026-03-08T21:00:00:Z","depth":"2","parameterNumber":3,"parameterNumberName":"V-component_of_CURRENTS"},"data":[0,0,0,-0.028,-0.0281,-0.0328,-0.0328,-0.039,-0.039,0,0,0,0,0,0,0,0,0,0,0,-0.0263,-0.0263,-0.028,-0.0281,-0.0327,-0.0328,-0.039,-0.039,0,0,0,0,0,0,0,0,0,0,0,-0.0263,-0.0263,-0.0263,-0.0281,-0.0327,-0.0328,-0.039,-0.0356,0,0,0,0,0,0,0,0,0,0,-0.0311,-0.029,-0.0263,-0.0263,-0.0282,-0.0327,-0.0328,-0.0354,-0.0358,-0.0367,0,-0.0369,0,-0.0379,-0.0394,-0.0394,0,0,0,-0.0289,-0.0287,-0.03,-0.0263,-0.0282,-0.0327,-0.0309,-0.0356,-0.0361,-0.0372,-0.037,-0.0372,-0.038,-0.0394,-0.0395,-0.0406,-0.0406,0,0,-0.0286,-0.0273,-0.0297,-0.0302,-0.0287,-0.0307,-0.031,-0.0359,-0.036,-0.037,-0.0374,-0.0381,-0.0395,-0.0395,-0.0407,-0.0406,0,0,0,-0.0274,-0.0271,-0.0283,-0.03,-0.0307,-0.0308,-0.0312,-0.0358,-0.0362,-0.0375,-0.0382,-0.0395,-0.0396,-0.0407,-0.0407,-0.0347,0,0,0,-0.0273,-0.0264,-0.0282,-0.0275,-0.0306,-0.0332,-0.0309,-0.0358,-0.0364,-0.0381,-0.0395,-0.0396,-0.0407,-0.0407,-0.0349,-0.0307,0,0,0,-0.0262,-0.0263,-0.0266,-0.0274,-0.0291,-0.0331,-0.0339,-0.036,-0.0368,-0.0394,-0.0396,-0.0408,-0.0407,-0.0351,-0.0312,-0.0265,0,0,0,-0.0251,-0.0242,-0.0266,-0.0258,-0.0291,-0.0298,-0.0338,-0.0352,-0.0369,-0.0395,-0.0407,-0.0407,-0.0352,-0.0314,-0.0268,-0.0267,-0.0254,0,0,-0.0231,-0.024,-0.0234,-0.0256,-0.025,-0.0293,-0.0286,-0.0328,-0.0364,-0.0394,-0.0394,-0.0349,-0.0312,-0.0266,-0.023,-0.0218,0,0,0,-0.0222,-0.0218,-0.022,-0.0224,-0.024,-0.0246,-0.0289,-0.0306,-0.0332,-0.0371,-0.0352,-0.0331,-0.0303,-0.031,-0.03,-0.0404,-0.0404,-0.0404,-0.0404,-0.0182,-0.0191,-0.0178,-0.0189,-0.0192,-0.0216,-0.022,-0.0251,-0.0296,-0.0295,-0.0286,-0.0213,-0.0219,-0.0212,-0.0299,-0.0299,-0.0299,-0.0298,-0.0298,-0.0148,-0.0139,-0.0145,-0.0136,-0.0143,-0.0139,-0.0157,-0.018,-0.0178,-0.0232,-0.0209,-0.0251,-0.0198,-0.0294,-0.0294,-0.0295,-0.0296,-0.0296,-0.0296,-0.0124,-0.0119,-0.0116,-0.0099,-0.0076,-0.0084,-0.0036,-0.0062,-0.011,-0.0091,-0.0105,-0.0106,-0.0163,-0.0083,-0.0082,-0.0082,-0.0081,-0.0081,-0.0081,-0.01,-0.0096,-0.0075,-0.0055,-0.0031,0.0017,0.0043,0.0056,0.0029,-0.0025,-0.0026,-0.014,-0.0147,-0.015,-0.0075,-0.0076,-0.0077,-0.0077,-0.0078,-0.0072,-0.0072,-0.0039,-0.0015,0.0057,0.0131,0.0156,0.0177,0.0174,0.0153,0.0008,0.0004,-0.0011,-0.002,-0.0021,0.0084,0.0084,0.0084,0.0084,-0.0053,-0.0051,-0.0001,0.005,0.0137,0.0186,0.028,0.029,0.0212,0.0147,0.0144,0.0089,0.008,0.0067,0.0056,0.0054,0.018,0.018,0.018,-0.0033,-0.0025,0.0021,0.0069,0.017,0.025,0.0331,0.0382,0.0279,0.0185,0.0175,0.0087,-0.0006,-0.0014,-0.0048,-0.0061,-0.0069,0,0]}],[{"header":{"parameterUnit":"m.s-1","parameterCategory":2,"la1":30.2992,"la2":30.254,"lo1":-89.0895,"lo2":-89.0443,"dy":0.0025,"dx":0.0025,"nx":19,"ny":19,"refTime":"2026-03-08T21:00:00:Z","depth":"4","parameterNumber":2,"parameterNumberName":"U-component_of_CURRENTS"},"data":[0,0,0,0.0586,0.0588,0.0671,0.0672,0.0744,0.0745,0,0,0,0,0,0,0,0,0,0,0,0.0559,0.0559,0.0586,0.0588,0.0671,0.0672,0.0744,0.0745,0,0,0,0,0,0,0,0,0,0,0,0.0559,0.0559,0.056,0.0588,0.0671,0.0672,0.0744,0.069,0,0,0,0,0,0,0,0,0,0,0.0613,0.0592,0.0559,0.056,0.0589,0.0671,0.0672,0.0688,0.0693,0.0697,0,0.0714,0,0.073,0.0749,0.0749,0,0,0,0.0589,0.0588,0.061,0.056,0.0589,0.0671,0.0634,0.0691,0.0697,0.0704,0.0715,0.0718,0.0731,0.0749,0.075,0.083,0.083,0,0,0.0584,0.0573,0.0606,0.0614,0.0616,0.0631,0.0637,0.0695,0.0703,0.0715,0.072,0.0732,0.075,0.075,0.0829,0.083,0,0,0,0.057,0.057,0.0592,0.0611,0.0628,0.0634,0.064,0.07,0.0708,0.0721,0.0733,0.075,0.0751,0.0829,0.083,0.0844,0,0,0,0.0568,0.0562,0.059,0.0584,0.0628,0.067,0.0643,0.0704,0.0711,0.0732,0.075,0.0751,0.0828,0.0829,0.0843,0.084,0,0,0,0.0554,0.056,0.0571,0.0583,0.0619,0.067,0.0681,0.0706,0.0718,0.0749,0.0752,0.0828,0.0829,0.0841,0.0839,0.0878,0,0,0,0.0537,0.0556,0.0571,0.0598,0.0618,0.0669,0.0681,0.0728,0.0756,0.075,0.0828,0.0829,0.0841,0.0838,0.0877,0.0789,0,0,0,0.0549,0.0558,0.0573,0.0588,0.063,0.0657,0.0709,0.0753,0.0772,0.0806,0.0808,0.0843,0.0839,0.0878,0.0851,0,0,0,0,0.0568,0.0581,0.0596,0.0626,0.0662,0.0704,0.0748,0.0777,0.083,0.0794,0.086,0.0857,0.0881,0.0827,0.0834,0.0834,0.0834,0.0834,0.0834,0.0568,0.0589,0.0617,0.065,0.0684,0.0744,0.0782,0.083,0.0846,0.0881,0.0882,0.0937,0.0881,0.0901,0.0901,0.0901,0.0901,0.0901,0.0901,0.0581,0.0594,0.0628,0.0664,0.0707,0.0755,0.0825,0.0854,0.0922,0.0918,0.0942,0.0861,0.0903,0.0903,0.0903,0.0902,0.0902,0.0902,0.0902,0.057,0.0579,0.0608,0.0657,0.0711,0.0769,0.0829,0.0885,0.0934,0.0958,0.0927,0.0957,0.0942,0.0987,0.0987,0.0987,0.0987,0.0988,0.0988,0.0543,0.0572,0.0601,0.0653,0.0688,0.0749,0.0844,0.0891,0.0953,0.0936,0.0976,0.0966,0.0963,0.0948,0.099,0.099,0.099,0.0989,0.0989,0.0527,0.0545,0.0582,0.0615,0.0685,0.0717,0.0813,0.0885,0.0935,0.0949,0.093,0.0932,0.0921,0.092,0.0902,0.0933,0.0932,0.0931,0,0.0511,0.0523,0.0572,0.061,0.0647,0.07,0.0745,0.0813,0.0873,0.0841,0.0936,0.091,0.0912,0.0896,0.0894,0.087,0,0,0,0.0504,0.0522,0.0548,0.0591,0.0625,0.0682,0.0754,0.0764,0.085,0.0886,0.0907,0.0913,0.0969,0.0998,0.0988,0.0985,0.0959,0,0]},{"header":{"parameterUnit":"m.s-1","parameterCategory":2,"la1":30.2992,"la2":30.254,"lo1":-89.0895,"lo2":-89.0443,"dy":0.0025,"dx":0.0025,"nx":19,"ny":19,"refTime":"2026-03-08T21:00:00:Z","depth":"4","parameterNumber":3,"parameterNumberName":"V-component_of_CURRENTS"},"data":[0,0,0,-0.0068,-0.0069,-0.0124,-0.0124,-0.0183,-0.0184,0,0,0,0,0,0,0,0,0,0,0,-0.005,-0.0051,-0.0068,-0.0069,-0.0124,-0.0124,-0.0183,-0.0184,0,0,0,0,0,0,0,0,0,0,0,-0.005,-0.0051,-0.0051,-0.007,-0.0124,-0.0124,-0.0183,-0.0146,0,0,0,0,0,0,0,0,0,0,-0.0094,-0.0082,-0.0051,-0.0051,-0.007,-0.0124,-0.0124,-0.0144,-0.0148,-0.0154,0,-0.0161,0,-0.0171,-0.0187,-0.0187,0,0,0,-0.0074,-0.0078,-0.0088,-0.0051,-0.007,-0.0124,-0.0101,-0.0146,-0.0151,-0.0159,-0.0162,-0.0164,-0.0172,-0.0187,-0.0187,-0.0197,-0.0197,0,0,-0.0071,-0.0066,-0.0085,-0.0091,-0.0083,-0.0099,-0.0102,-0.0149,-0.0156,-0.0162,-0.0166,-0.0173,-0.0188,-0.0188,-0.0197,-0.0197,0,0,0,-0.0059,-0.0064,-0.0073,-0.0088,-0.0098,-0.0101,-0.0105,-0.0154,-0.0156,-0.0167,-0.0174,-0.0188,-0.0188,-0.0198,-0.0197,-0.018,0,0,0,-0.0058,-0.0056,-0.0072,-0.007,-0.0097,-0.0129,-0.0108,-0.0153,-0.0158,-0.0173,-0.0188,-0.0189,-0.0198,-0.0197,-0.0182,-0.0168,0,0,0,-0.0048,-0.0056,-0.006,-0.0069,-0.009,-0.0128,-0.0134,-0.0154,-0.0162,-0.0187,-0.0189,-0.0198,-0.0197,-0.0182,-0.017,-0.0186,0,0,0,-0.0043,-0.0048,-0.006,-0.0065,-0.0089,-0.0098,-0.0133,-0.0155,-0.0175,-0.0188,-0.0198,-0.0197,-0.0183,-0.0171,-0.0187,-0.013,0,0,0,-0.0043,-0.0048,-0.0048,-0.006,-0.006,-0.0091,-0.0094,-0.0142,-0.0166,-0.0183,-0.0184,-0.0181,-0.017,-0.0187,-0.0094,0,0,0,0,-0.0043,-0.0044,-0.0045,-0.0051,-0.006,-0.0072,-0.0109,-0.0127,-0.0158,-0.0174,-0.0173,-0.0167,-0.0178,-0.0146,-0.0194,-0.0194,-0.0194,-0.0194,-0.0194,-0.0041,-0.0039,-0.0035,-0.0034,-0.0039,-0.0062,-0.0076,-0.0105,-0.0132,-0.0142,-0.0148,-0.0139,-0.0102,-0.0145,-0.0145,-0.0144,-0.0144,-0.0144,-0.0144,-0.0034,-0.0028,-0.0025,-0.0022,-0.0026,-0.0032,-0.0054,-0.0078,-0.0106,-0.0121,-0.0134,-0.0122,-0.0142,-0.0143,-0.0143,-0.0143,-0.0143,-0.0144,-0.0144,-0.0028,-0.0024,-0.0024,-0.0017,-0.0017,-0.0026,-0.0028,-0.0057,-0.0091,-0.0097,-0.009,-0.0133,-0.0142,-0.0119,-0.0119,-0.0119,-0.0119,-0.0119,-0.0119,-0.0025,-0.0021,-0.002,-0.0014,-0.0014,-0.0013,-0.0024,-0.0031,-0.0067,-0.0059,-0.0103,-0.0131,-0.0132,-0.0141,-0.0119,-0.0119,-0.0119,-0.0119,-0.0119,-0.002,-0.0022,-0.0019,-0.002,-0.0007,0.0005,-0.0007,0.0004,-0.001,-0.0016,-0.0047,-0.005,-0.0056,-0.0059,-0.0067,-0.0022,-0.0021,-0.002,0,-0.0021,-0.002,-0.0019,-0.0013,0.0011,0.0016,0.0048,0.0047,0.0012,0.0016,-0.0038,-0.0074,-0.0076,-0.0084,-0.0086,-0.0094,0,0,0,-0.0025,-0.0024,-0.0023,-0.0009,0.002,0.0055,0.0062,0.0073,0.0018,0.0045,-0.0,-0.0005,-0.0058,-0.0119,-0.0138,-0.0139,-0.0155,0,0]}]]